sat.trackr.live / text

‹ back to catalog

NSS-10

NORAD 28526 · 2005-003A

PAYLOAD ACTIVE UNKNOWN

§ Identity

Operator
Country
SES
Launch date
2005-02-03
Launch site
TYMSC
Launch vehicle
Mass (kg)
RCS (m²)
9.52

Purposes: comms

External: N2YO · Heavens-Above · Gunter

§ Orbital elements

Epoch: 2026-09-18T23:06:38.835072Z

Period
1,436.08 min
Inclination
6.6793°
Eccentricity
0.0003108
Mean motion
1.00273027 rev/d
Perigee alt
35,773.1 km
Apogee alt
35,799.4 km
Semi-major
42,164.4 km
B*
0.0000e+0
RAAN
69.2768°
Arg perigee
98.4798°
Mean anomaly
139.3564°
Rev number
5,409

§ Raw data

NSS-101 28526U 05003A   26261.96294948 -.00000254  00000+0  00000+0 0  99992 28526   6.6793  69.2768 0003108  98.4798 139.3564  1.00273027 54092

JSON: /api/v1/satellites/28526 · /tle

For live sub-satellite position, see the globe view (requires WebGL).

§ Visibility from observer

Set your observer location to see the next 7 days of passes ≥ 10°. The values pass through the URL so the page stays shareable.

No JS? Fill the form by hand. The geolocation button needs JavaScript.